weather.gov     
National Weather Service

Regional Weather Roundup
NWS Homepage
This page is being discontinued on March 12, 2014.
The same data is available at this site. Please update your bookmarks.
Thank you, and we apologize for the inconvenience.
Please send an email to SR-SRH.Webmaster@noaa.gov with any concerns.


Current Version
Previous Version:    01  02  03  04  05  06  07  08  09  10  11  12  13  14  15  16  17  18  19  20  21  22  23  24  25  26  
[Printable]
371
ASUS45 KSLC 020610
RWRUT

UTAH REGIONAL WEATHER ROUNDUP
NATIONAL WEATHER SERVICE SALT LAKE CITY UT
1200 AM MDT SAT AUG 02 2014

UTZ001>011-023>025-020700-

NORTHERN UTAH

CITY           SKY/WX    TMP DP  RH WIND       PRES   REMARKS
HILL AFB       CLEAR     74  50  43 E13       30.13F
LOGAN          CLEAR     69  55  60 SW9       30.13S
OGDEN          CLEAR     73  50  44 S7        30.10F
PROVO AIRPORT  CLEAR     70  54  56 CALM      30.13S
SALT LAKE CITY CLEAR     75  52  44 S5        30.09R
VERNAL         CLEAR     66  45  46 W6        30.18R
WENDOVER       MOCLDY    73  43  33 CALM      30.10F
HEBER CITY     CLEAR     57  50  77 CALM      30.23R
WEST JORDAN    CLEAR     73  54  49 W5        30.13S

$$

UTZ012>022-026-027-020700-

SOUTHERN UTAH

CITY           SKY/WX    TMP DP  RH WIND       PRES   REMARKS
BRYCE CANYON   MOCLDY    54  45  71 VRB6      30.37R
CEDAR CITY     PTCLDY    70  41  34 SE6       30.19R
MILFORD        MOCLDY    72  41  32 W10       30.14R
MOAB/CYNLANDS  CLEAR     75  49  39 SE5       30.10R
PRICE          CLEAR     68  42  38 CALM      30.22S
ST GEORGE      CLEAR     82  55  39 SE13      29.97S
KANAB            N/A     70  57  64 NW6       30.19S

$$

REGIONAL REPORTS     COLORADO/ARIZONA

CITY           SKY/WX    TMP DP  RH WIND       PRES   REMARKS
CRAIG, CO      CLEAR     54  45  71 E5        30.28S
GRAND JUNCTION CLEAR     67  52  58 E3        30.17S
RIFLE          CLEAR     61  47  59 SW5       30.25R
MONTROSE       CLEAR     62  50  64 S5        30.26S
CORTEZ         CLEAR     63  49  60 NW5       30.24R
PAGE, AZ       PTCLDY    83  47  28 W5        30.08S
GRAND CANYON   CLOUDY    61  49  64 CALM      30.31R
KINGMAN        MOCLDY    83  47  28 SE20      30.07S
FLAGSTAFF      CLOUDY    58  49  72 SW9       30.33R

$$

REGIONAL REPORTS    NEVADA/IDAHO/WYOMING

CITY           SKY/WX    TMP DP  RH WIND       PRES   REMARKS
LAS VEGAS, NV  PTCLDY    96  51  21 S12       29.85S HX  93
ELY            CLOUDY    73  38  27 W8        30.28R
ELKO           MOCLDY    74  37  26 CALM      30.14F
POCATELLO, ID  CLEAR     62  49  62 N8        30.18R
BURLEY         MOCLDY    69  50  50 N5        30.12R
EVANSTON, WY   PTCLDY    63  40  42 SW3       30.34S
ROCK SPRINGS   MOCLDY    65  38  36 NE16      30.32S

$$




U.S. Dept. of Commerce
NOAA National Weather Service
1325 East West Highway
Silver Spring, MD 20910
E-mail: w-nws.webmaster@noaa.gov
Page last modified: May 16, 2007
NATIONAL WEATHER SERVICE: for Safety, for Work, for Fun - FOR LIFE